Regional Weather Roundup
Issued by NWS

Home | Current Version | Previous Version | Graphics & Text | Print | Product List | Glossary On
Versions: 1 2 3 4 5 6 7 8 9 10 11 12 13 14 15 16 17 18 19 20 21 22 23 24 25 26 27 28 29 30 31 32 33 34 35 36 37 38 39 40 41 42 43 44 45 46 47 48 49 50
000
ASUS43 KOAX 192202
RWRNE

WEATHER ROUNDUP FOR NEBRASKA
NATIONAL WEATHER SERVICE OMAHA NE
400 PM CST THU JAN 19 2017

NOTES: SATELLITE DATA IS BEING USED TO AUGMENT CLOUD COVER ABOVE
       12000 FEET.
       "FAIR" INDICATES FEW OR NO CLOUDS BELOW 12,000 FEET WITH NO
       SIGNIFICANT WEATHER AND/OR OBSTRUCTIONS TO VISIBILITY.

  * THESE STATIONS DO NOT REPORT WEATHER SUCH AS RAIN...SNOW OR FOG.

NEZ001>004-019>022-054>056-192300-
NEBRASKA PANHANDLE

CITY           SKY/WX    TMP DP  RH WIND       PRES   REMARKS
SCOTTSBLUFF    SUNNY     56  23  27 W3        29.49S
ALLIANCE       SUNNY     52  23  32 W7        29.47F
CHADRON        SUNNY     42  26  53 W6        29.48S
SIDNEY         SUNNY     52  31  44 S7        29.50F
$$

NEZ057>060-069>072-079>082-192300-
SOUTHWEST NEBRASKA

CITY           SKY/WX    TMP DP  RH WIND       PRES   REMARKS
NORTH PLATTE   CLOUDY    39  39 100 S12       29.56S WCI  32
IMPERIAL       SUNNY     44  35  70 S6        29.53S
LEXINGTON      CLOUDY    42  40  92 S7        29.59R
MCCOOK         CLOUDY    37  36  96 CALM      29.58S FOG
OGALLALA       SUNNY     50  32  50 S3        29.52S
$$

NEZ005>010-023>029-035>040-094-192300-
NORTH CENTRAL NEBRASKA

CITY           SKY/WX    TMP DP  RH WIND       PRES   REMARKS
VALENTINE      SUNNY     56  21  25 W14       29.46F
AINSWORTH      SUNNY     43  36  77 S14       29.50S
BROKEN BOW     CLOUDY    41  40  96 S8        29.57R
O`NEILL        CLOUDY    42  42  99 S12       29.57S FOG
ORD            CLOUDY    41  39  93 S7        29.58R FOG
THEDFORD       SUNNY     43  36  75 S12       29.53S
$$

NEZ041-046>049-061>064-073>077-083>087-192300-
SOUTH CENTRAL NEBRASKA

CITY           SKY/WX    TMP DP  RH WIND       PRES   REMARKS
GRAND ISLAND   CLOUDY    41  41 100 S7        29.61S FOG
AURORA         CLOUDY    41  41 100 S6        29.61S
HASTINGS       CLOUDY    42  41  96 S6        29.62S
HEBRON         CLOUDY    43  43  98 SE3       29.63R FOG
HOLDREGE       CLOUDY    41  40  97 S6        29.60S FOG
KEARNEY *      CLOUDY    41  39  93 S7        29.60R
YORK           MOSUNNY   41  41 100 S6        29.62F
$$

NEZ011>018-030>034-042>045-192300-
NORTHEAST NEBRASKA

CITY           SKY/WX    TMP DP  RH WIND       PRES   REMARKS
NORFOLK        CLOUDY    40  39  97 SE12      29.62R FOG     WCI  33
ALBION         CLOUDY    40  40 100 S9        29.61S FOG     WCI  34
BLAIR          CLOUDY    43  40  91 S5        29.66R FOG
FREMONT        CLOUDY    41  41 100 SE3       29.66R FOG
TEKAMAH        FOG       39  38  96 CALM      29.66S VSB 1/2
WAYNE          CLOUDY    41  41  98 S10       29.64R
$$

NEZ050>053-065>068-078-088>093-192300-
SOUTHEAST NEBRASKA

CITY           SKY/WX    TMP DP  RH WIND       PRES   REMARKS
LINCOLN        CLOUDY    42  41  96 S3        29.66S FOG
OMAHA EPPLEY   CLOUDY    44  39  82 SE9       29.66F FOG
BEATRICE       CLOUDY    43  43  99 CALM      29.64S FOG
FALLS CITY     CLOUDY    45  44  97 S7        29.65F
NEBRASKA CITY  CLOUDY    43  43 100 S3        29.66S FOG
PLATTSMOUTH    CLOUDY    42  40  91 CALM      29.66S FOG
$$

NEZ044-045-051>053-067-192300-
OMAHA AREA

CITY           SKY/WX    TMP DP  RH WIND       PRES   REMARKS
OMAHA EPPLEY   CLOUDY    44  39  82 SE9       29.66F FOG
BLAIR          CLOUDY    43  40  91 S5        29.66R FOG
FREMONT        CLOUDY    41  41 100 SE3       29.66R FOG
MILLARD        CLOUDY    44  43  95 SE3       29.66F FOG
OFFUTT AFB     CLOUDY    43  43 100 E5        29.66F FOG
PLATTSMOUTH    CLOUDY    42  40  91 CALM      29.66S FOG
WAHOO          CLOUDY    41  40  95 S3        29.66R FOG
$$




USA.gov is the U.S. government's official web portal to all federal, state and local government web resources and services.